Location: Béaulencourt
(50.0796°N, 2.8795°E)
Time: 23:05:54
(UTC+00:00)

NOSS 2-2 (C) - Pass Details

Date: 20 January 2026
Orbit: 379 x 1692 km, 63.3° (Epoch: 17 February)

Event Time Altitude Azimuth Distance (km) Brightness Sun altitude
Rises 05:58:28 0° 212° (SSW) 2,533 6.5 -15.4°
Reaches altitude 10° 06:00:45 10° 209° (SSW) 1,542 5.5 -15.1°
Maximum altitude 06:03:58 56° 130° (SE) 475 3.3 -14.6°
Drops below altitude 10° 06:06:54 10° 50° (NE) 1,404 5.9 -14.1°
Sets 06:08:54 0° 46° (NE) 2,273 6.9 -13.8°
